Vertical_Velocity
-0 -1 -1 -1 -1 -1 -0 0 0 0 1 1 0 0 0 0 0 0 0 0 0 0 0 0 -0 -1 -1 -1 -1 -1 -1 -1 -1 -1 -1 -1 -1 -1 -2 -2 -2 -1 -1 -1 -1 -1 -1 -2 -3 -2 -1 -1 -1 -1 -2 -2 -1 -1 -1 -2 -2 -2 -2 -2 -1 -1 -1 -1 -1 -1 -1 -1 -1 -1 -1 -1 -1 -1 -2 -2 -2 -2 -2 -2 -2 -2 -2 -2 -2 -2 -2 -2 -2 -2 -2 -2 -2 -2 -2 -2 -2 -2 -1
-0 -1 -1 -1 -1 -1 -0 -0 0 0 1 0 0 0 0 0 0 0 0 0 0 0 0 -0 -0 -0 -1 -0 -1 -1 -1 -1 -1 -1 -1 -1 -1 -2 -2 -2 -2 -1 -1 -1 -1 -1 -1 -2 -2 -2 -1 -1 -1 -1 -2 -1 -1 -1 -1 -2 -2 -2 -2 -1 -1 -1 -1 -1 -1 -1 -1 -1 -1 -1 -1 -1 -1 -1 -1 -1 -2 -2 -2 -2 -2 -2 -2 -2 -2 -2 -2 -2 -2 -2 -2 -2 -2 -2 -2 -2 -2 -2 -2
-0 -0 -1 -1 -1 -0 -0 -0 0 0 1 0 0 0 0 0 0 0 0 0 0 0 -0 -0 -0 -0 -1 -1 -1 -1 -1 -1 -1 -1 -1 -1 -2 -2 -2 -1 -1 -1 -1 -1 -1 -1 -1 -2 -2 -1 -1 -1 -1 -1 -1 -1 -1 -1 -1 -1 -1 -1 -1 -1 -1 -1 -1 -1 -1 -1 -1 -1 -1 -1 -1 -1 -1 -1 -1 -1 -1 -1 -2 -2 -2 -2 -2 -2 -2 -2 -2 -2 -2 -2 -2 -2 -2 -2 -2 -2 -2 -2 -2
-0 -0 -0 -0 -0 -0 -0 -0 0 0 0 0 0 0 0 0 0 0 0 0 0 -0 -0 -0 -0 -1 -1 -1 -1 -1 -1 -1 -1 -2 -1 -2 -2 -2 -1 -1 -1 -1 -1 -1 -1 -2 -2 -1 -1 -1 -1 -1 -1 -1 -1 -1 -1 -1 -1 -1 -1 -1 -1 -1 -1 -1 -1 -1 -1 -1 -1 -1 -1 -1 -1 -1 -1 -1 -1 -1 -1 -1 -1 -1 -1 -2 -2 -2 -2 -2 -2 -2 -2 -2 -2 -2 -2 -1 -1 -1 -2 -2 -2
-0 0 0 -0 -0 -0 -0 0 0 0 0 -0 -0 0 0 0 0 0 0 -0 -0 -0 -0 -0 -1 -1 -1 -1 -1 -1 -1 -1 -2 -2 -2 -2 -2 -1 -1 -1 -1 -1 -1 -1 -1 -2 -2 -1 -1 -1 -1 -1 -2 -2 -1 -1 -1 -1 -1 -0 -1 -1 -1 -1 -1 -1 -1 -1 -1 -1 -1 -1 -1 -1 -1 -1 -1 -1 -1 -1 -1 -1 -1 -1 -1 -1 -1 -2 -2 -2 -2 -2 -2 -2 -2 -2 -2 -1 -1 -1 -1 -1 -1
0 0 1 0 -0 -0 -0 0 0 0 -0 -0 -0 0 1 1 0 0 0 -0 -0 -0 -0 -0 -0 -1 -1 -1 -1 -1 -1 -1 -2 -2 -2 -2 -1 -1 -1 -1 -1 -1 -1 -1 -1 -1 -2 -1 -1 -1 -1 -1 -1 -1 -1 -1 -1 -1 -1 -1 -1 -1 -1 -1 -1 -1 -1 -1 -1 -1 -1 -1 -1 -1 -1 -1 -1 -1 -1 -1 -1 -1 -1 -1 -1 -1 -1 -1 -1 -1 -1 -1 -1 -1 -2 -2 -2 -2 -1 -1 -1 -1 -1
1 1 1 0 0 0 0 0 0 -0 -0 -0 -0 0 1 1 0 0 -0 -0 -0 -0 -0 -0 -1 -1 -1 -1 -1 -1 -1 -1 -1 -2 -2 -2 -1 -1 -1 -1 -1 -1 -1 -1 -1 -1 -1 -1 -1 -1 -1 -1 -1 -1 -0 -0 -1 -1 -1 -1 -1 -1 -1 -1 -1 -1 -1 -1 -1 -1 -1 -1 -1 -1 -1 -1 -1 -1 -1 -1 -1 -1 -1 -1 -1 -1 -1 -1 -1 -1 -1 -1 -1 -1 -1 -1 -1 -2 -1 -1 -1 -1 -1
1 1 1 0 0 0 0 0 0 -0 -0 -0 -0 0 0 0 0 0 0 -0 -0 -1 -1 -0 -1 -1 -1 -1 -1 -1 -1 -1 -1 -2 -2 -1 -1 -1 -0 -0 -0 -0 -0 -1 -1 -1 -1 -1 -1 -1 -1 -1 -1 -1 -0 -0 -1 -1 -1 -1 -1 -1 -1 -1 -1 -1 -1 -1 -1 -1 -1 -1 -1 -1 -1 -1 -1 -1 -1 -1 -1 -1 -1 -1 -1 -1 -1 -1 -0 -0 -0 -0 -0 -0 -0 -0 -1 -1 -1 -1 -1 -1 -1
1 1 1 0 0 0 0 0 0 -0 -0 -0 0 0 0 0 0 0 -1 -0 -0 -1 -1 -0 -1 -1 -1 -1 -1 -1 -1 -1 -1 -2 -1 -1 -0 -0 0 0 -0 -0 -1 -1 -1 -1 -1 -1 -1 -1 -0 -0 -1 -1 -1 -0 -1 -1 -1 -1 -1 -1 -1 -1 -1 -1 -1 -1 -1 -1 -1 -1 -1 -1 -1 -1 -1 -1 -1 -1 -1 -1 -0 -0 -0 -0 -0 -0 -0 -0 0 -0 -0 -0 0 0 -0 -0 -0 -1 -1 -1 -1
1 1 1 1 0 0 0 0 0 0 -0 -0 -0 0 0 0 -0 -0 -1 -1 -1 -1 -1 -1 -1 -1 -1 -1 -1 -1 -1 -1 -1 -1 -1 -1 -0 -0 -0 -0 -1 -1 -1 -1 -1 -1 -1 -1 -1 -0 -0 -0 -0 -0 -1 -1 -1 -1 -1 -1 -1 -1 -1 -1 -1 -1 -1 -1 -1 -1 -1 -1 -1 -1 -1 -1 -1 -1 -1 -1 -1 -1 -0 -0 -0 -0 -0 -0 -0 0 0 0 0 -0 0 0 0 0 0 -0 -0 -1 -1
1 1 1 1 1 0 0 0 0 -0 -0 -0 0 0 0 -0 -0 -1 -1 -1 -1 -1 -1 -1 -1 -2 -2 -1 -1 -1 -1 -1 -1 -1 -1 -1 -1 -1 -1 -1 -1 -1 -1 -1 -1 -1 -1 -1 -1 -0 -0 -0 -0 -0 -0 -0 -1 -1 -1 -1 -1 -1 -1 -1 -1 -1 -1 -1 -1 -1 -1 -1 -1 -1 -1 -1 -1 -1 -1 -1 -1 -1 -1 -0 -0 0 0 0 0 0 0 0 0 -0 -0 0 0 0 0 0 -0 -0 -1
1 1 1 1 1 1 0 0 0 -0 -0 -0 -0 0 -0 -0 -1 -1 -1 -1 -1 -1 -1 -1 -2 -2 -1 -1 -1 -1 -1 -1 -2 -2 -2 -1 -1 -1 -1 -1 -1 -1 -1 -1 -1 -1 -0 -0 -0 -0 -0 -0 -0 -0 -0 -0 -0 -0 -1 -1 -1 -1 -1 -1 -1 -1 -1 -1 -1 -1 -1 -1 -1 -1 -1 -0 -0 -0 -1 -1 -1 -1 -1 -1 -0 -0 0 0 0 0 0 0 0 -0 -0 -0 -0 0 -0 -0 -0 -0 -1
1 1 1 1 1 1 0 0 0 -0 -0 -0 -0 -0 -1 -1 -1 -1 -1 -1 -1 -1 -2 -2 -2 -1 -1 -1 -1 -2 -2 -2 -2 -2 -1 -1 -0 -0 -0 -0 -0 -0 -0 -0 -0 -0 -0 -0 -0 -0 -0 -0 -0 -0 -0 -0 -0 -1 -1 -1 -1 -1 -1 -1 -1 -1 -1 -1 -1 -1 -1 -1 -1 -1 -0 -0 -0 -0 -0 -1 -1 -1 -1 -1 -1 -1 -0 -0 -0 -0 0 0 0 -0 -0 -1 -0 -0 -0 -0 -0 -1 -1
1 1 1 1 1 1 0 0 -0 -0 -0 -1 -1 -1 -1 -1 -2 -1 -1 -1 -1 -2 -2 -2 -1 -1 -1 -2 -2 -2 -2 -1 -1 -1 -0 -0 -0 0 0 0 0 0 -0 0 0 0 0 -0 -0 -0 -0 -1 -0 -0 -0 -1 -1 -1 -1 -1 -1 -1 -1 -1 -1 -1 -1 -1 -1 -1 -1 -0 -0 -0 -0 -0 -0 -0 -0 -0 -0 -1 -1 -1 -1 -1 -1 -1 -1 -1 -0 -0 -0 -0 -0 -1 -1 -1 -1 -1 -1 -1 -1
1 1 1 1 1 1 0 0 -0 -0 -0 -1 -1 -1 -2 -2 -2 -1 -1 -1 -2 -2 -2 -2 -2 -2 -2 -2 -1 -1 -0 -0 -0 -0 -0 0 0 1 1 1 0 0 0 0 0 0 -0 -0 -0 -0 -0 -1 -1 -1 -0 -1 -1 -1 -1 -1 -1 -1 -1 -1 -1 -1 -1 -0 -0 -0 -0 -0 -0 -0 -0 -0 -0 -0 -0 -0 -0 -0 -0 -1 -1 -1 -2 -1 -1 -1 -1 -1 -1 -1 -1 -1 -1 -1 -1 -2 -2 -2 -2
1 1 1 1 1 1 0 0 -0 -0 -0 -1 -1 -1 -2 -2 -1 -1 -1 -2 -2 -2 -2 -2 -2 -2 -1 -0 -0 0 0 -0 -0 -0 0 0 1 1 1 1 1 1 0 0 0 0 -0 -0 -0 -0 -0 -1 -1 -1 -0 -0 -1 -1 -1 -1 -1 -1 -1 -1 -1 -1 -1 -0 -0 -0 -0 -0 -0 -0 -0 -0 -0 -0 -0 -0 -0 -0 -0 -0 -1 -1 -1 -1 -2 -2 -1 -1 -1 -1 -1 -1 -1 -1 -1 -1 -2 -2 -2
1 1 1 1 1 1 0 0 0 -0 -0 -1 -1 -1 -1 -1 -1 -1 -2 -2 -2 -2 -2 -2 -1 -1 -0 0 1 1 0 0 0 0 0 1 1 1 1 1 1 1 0 0 0 0 0 0 0 0 -0 -1 -1 -0 -0 -0 -0 -1 -0 -0 -0 -0 -1 -1 -1 -1 -1 -1 -0 -0 -0 -0 -0 -0 -0 -0 -0 -0 -1 -1 -1 -1 -1 -1 -1 -1 -1 -1 -1 -2 -2 -2 -1 -1 -1 -1 -1 -1 -1 -1 -1 -1 -2
1 1 1 1 1 1 0 0 0 0 -0 -1 -1 -1 -1 -1 -1 -1 -2 -3 -3 -3 -2 -1 -0 0 1 1 1 0 0 0 0 1 1 1 1 1 1 1 1 0 0 0 0 0 0 0 0 0 -0 -0 -0 -0 -0 -0 -0 -0 -0 -0 -0 -0 -0 -0 -1 -1 -1 -1 -1 -1 -0 -0 -0 -0 -0 -0 -0 -1 -1 -1 -1 -1 -1 -1 -1 -1 -1 -1 -1 -2 -2 -2 -2 -2 -1 -1 -1 -1 -0 -0 -1 -1 -1
0 1 1 1 1 1 1 1 0 0 -0 -0 -1 -1 -1 -1 -1 -2 -3 -3 -3 -2 -1 0 1 1 1 1 1 1 0 0 0 1 1 1 1 1 1 1 0 0 0 0 0 0 0 0 0 0 0 -0 -0 -0 -1 -1 -0 -0 -0 -0 -0 -0 -0 -0 -0 -1 -1 -1 -1 -1 -1 -1 -1 -0 -0 -1 -1 -1 -1 -1 -1 -1 -1 -1 -1 -1 -1 -1 -1 -2 -2 -2 -2 -2 -2 -1 -1 -1 -1 -0 -0 -1 -1
-0 0 1 1 1 1 1 1 1 0 0 -0 -0 -0 -0 -0 -1 -2 -3 -3 -2 -1 -0 1 1 1 1 1 1 1 0 0 0 0 0 0 1 1 1 0 0 0 0 0 0 0 0 0 1 0 0 -0 -0 -0 -1 -1 -0 -0 -0 -0 -0 -0 -0 -0 -1 -1 -1 -1 -1 -1 -1 -1 -1 -1 -1 -1 -1 -1 -1 -1 -1 -1 -1 -1 -1 -1 -1 -1 -1 -2 -2 -2 -2 -2 -2 -2 -1 -1 -1 -1 -1 -1 -1
-0 -1 -0 1 1 1 1 1 0 0 -0 -0 -0 0 0 -0 -2 -2 -3 -2 -1 -0 0 1 1 1 1 1 1 1 0 0 0 0 0 0 0 0 1 0 0 0 0 0 0 0 0 0 1 0 0 -0 -0 -0 -1 -1 -1 -0 -0 -0 -0 -0 -0 -1 -1 -1 -1 -1 -1 -1 -1 -1 -1 -1 -1 -1 -1 -1 -1 -1 -1 -1 -1 -1 -1 -1 -1 -1 -1 -1 -1 -2 -2 -2 -2 -2 -2 -1 -1 -1 -1 -1 -1
0 -0 -1 -1 -0 0 0 -0 -0 -1 -0 -0 -0 0 0 -1 -2 -2 -2 -1 -0 -0 0 0 1 1 1 1 1 1 0 0 0 0 0 0 0 0 0 0 0 -0 0 0 0 1 1 1 1 0 0 -0 -0 -0 -1 -1 -0 -0 -0 -0 -0 -0 -0 -1 -1 -1 -1 -1 -1 -1 -1 -1 -1 -1 -1 -1 -1 -1 -1 -1 -1 -1 -1 -1 -1 -1 -1 -1 -1 -1 -1 -1 -2 -2 -2 -2 -2 -2 -1 -1 -1 -1 -1
1 0 -1 -0 -1 -1 -1 -1 -1 -1 -0 -0 -0 -0 -0 -2 -2 -1 -1 -1 -1 -0 -0 0 1 1 1 1 1 1 0 1 1 0 0 -0 -0 -0 -0 0 0 0 0 0 1 1 1 1 1 0 0 -0 -0 -0 -1 -0 -0 -0 -0 -0 -0 -0 -0 -1 -1 -1 -1 -1 -1 -1 -1 -2 -1 -1 -1 -1 -1 -1 -1 -1 -1 -1 -1 -1 -1 -1 -1 -1 -1 -1 -1 -1 -1 -1 -2 -2 -2 -2 -1 -1 -1 -1 -1
0 0 0 0 -0 -2 -2 -2 -1 -1 -0 -0 -1 -1 -1 -1 -1 -0 -0 -0 -0 -0 -0 0 0 1 1 1 1 0 0 1 1 1 0 -0 -0 -0 -0 0 0 0 0 0 1 1 1 1 1 1 0 0 -0 -0 -0 -0 0 0 0 -0 -0 -0 -0 -1 -1 -1 -1 -1 -1 -1 -1 -1 -1 -1 -1 -1 -1 -1 -1 -1 -1 -1 -1 -1 -1 -1 -1 -1 -1 -1 -1 -1 -1 -1 -2 -2 -2 -2 -1 -1 -1 -1 -1
-1 -0 0 -0 -1 -1 -2 -2 -1 -1 -0 -1 -1 -2 -1 -0 0 0 0 -0 -0 -0 -0 0 0 1 1 1 0 0 1 1 1 1 0 -0 -0 -0 -0 -0 0 0 0 0 1 1 1 1 1 1 1 0 0 0 0 0 0 0 0 0 -0 -0 -0 -0 -1 -1 -1 -1 -1 -1 -1 -1 -1 -1 -1 -1 -1 -1 -1 -1 -1 -1 -1 -1 -1 -1 -1 -1 -1 -1 -1 -1 -1 -1 -1 -2 -2 -2 -2 -1 -1 -1 -1
-1 -1 0 -0 -1 -1 -2 -1 -1 -0 -1 -1 -2 -2 -1 0 1 1 0 0 -0 -0 -0 0 0 1 1 1 1 1 1 1 1 1 1 0 -0 -0 -0 -0 0 0 0 0 1 1 1 1 1 1 1 1 1 0 0 0 0 0 0 0 0 0 0 -0 -0 -1 -1 -1 -1 -1 -1 -1 -1 -1 -1 -1 -1 -1 -1 -1 -1 -1 -1 -1 -1 -1 -1 -1 -1 -1 -1 -1 -1 -1 -1 -1 -2 -2 -2 -1 -1 -1 -2
-1 -1 -0 -0 -1 -1 -1 -1 -1 -1 -1 -1 -1 -1 -0 1 1 1 0 0 -0 -0 -0 0 1 1 1 1 1 1 1 1 1 1 1 0 -0 -0 -0 -0 -0 -0 0 0 0 0 1 1 1 1 1 1 1 1 0 0 0 0 0 0 0 0 0 -0 -0 -1 -1 -1 -1 -1 -1 -1 -1 -1 -1 -1 -1 -1 -1 -1 -1 -1 -1 -1 -1 -1 -1 -1 -1 -1 -1 -1 -1 -1 -1 -1 -1 -1 -1 -1 -2 -2 -2
-1 -1 -1 -0 -1 -1 -1 -0 -0 -1 -1 -1 -0 1 0 1 1 1 1 0 0 0 0 1 1 1 1 1 1 1 1 1 1 1 1 0 0 0 -0 -0 -0 -0 -0 -0 0 0 1 1 1 1 1 1 1 1 1 0 0 0 0 1 1 1 0 0 -0 -0 -1 -1 -1 -1 -1 -1 -1 -1 -1 -1 -1 -1 -1 -1 -1 -1 -1 -1 -1 -1 -1 -1 -1 -1 -1 -1 -1 -1 -1 -1 -1 -1 -1 -2 -2 -2 -2
-0 -0 -0 -0 -1 -1 -0 -0 -0 -1 -1 -0 1 1 1 1 0 1 1 1 1 1 1 1 1 2 1 1 1 1 1 1 1 1 1 1 0 0 0 -0 -0 -1 -1 -1 -0 -0 0 1 1 1 1 1 1 1 1 0 0 0 0 1 1 1 1 0 0 -0 -0 -1 -1 -1 -1 -1 -1 -1 -1 -1 -1 -1 -1 -1 -2 -2 -2 -2 -1 -1 -1 -1 -1 -1 -1 -1 -1 -1 -1 -1 -1 -1 -1 -2 -2 -2 -2
0 0 0 -0 -1 -1 0 0 -0 -0 0 0 1 1 1 1 0 0 1 1 1 1 1 1 1 1 1 1 1 1 1 1 1 1 1 1 1 1 0 -0 -1 -1 -1 -1 -1 -0 0 0 0 1 1 1 1 0 0 -0 -0 -0 0 0 0 1 1 0 0 -0 -0 -0 -0 -0 -1 -1 -1 -1 -1 -2 -2 -2 -2 -2 -2 -2 -2 -2 -2 -2 -1 -1 -0 -0 -0 -0 -1 -1 -1 -1 -1 -1 -1 -2 -2 -2 -2
0 0 0 0 -0 0 0 0 0 1 1 1 1 1 1 1 1 1 1 1 1 1 1 1 1 1 2 2 2 2 1 1 1 1 1 1 1 1 1 0 -0 -1 -1 -1 -1 -1 -0 -0 0 0 0 0 0 -0 -0 -0 -1 -1 -0 -0 -0 0 0 0 -0 -0 -0 -0 -0 -0 -0 -0 -0 -0 -1 -1 -2 -2 -2 -2 -2 -2 -3 -3 -3 -3 -3 -2 -1 -1 -0 -0 -0 -0 -0 -1 -1 -1 -1 -1 -1 -1 -1
0 0 -0 -0 -0 0 0 0 0 1 2 2 1 1 1 1 2 2 2 2 2 2 2 2 2 2 2 2 2 2 2 2 1 1 1 1 1 1 1 0 -0 -1 -1 -1 -1 -1 -0 -0 -0 -0 -0 -0 -0 -0 -1 -1 -1 -1 -1 -1 -1 -1 -1 -0 -0 -0 -0 -0 -1 -0 -0 -0 -0 -0 0 0 -0 -0 -1 -1 -1 -1 -2 -3 -3 -4 -4 -3 -3 -2 -2 -2 -1 -1 -1 -1 -1 -1 -1 -1 -1 -1 -1
0 0 0 -0 -0 -0 -0 0 1 1 2 2 2 1 2 2 2 2 2 3 3 2 2 2 2 2 2 2 2 2 2 2 2 2 1 1 1 1 1 0 0 -0 -0 -0 -0 -0 -0 -0 -0 -0 -0 -0 -0 -1 -1 -1 -1 -1 -1 -1 -1 -1 -1 -1 -1 -1 -1 -1 -1 -1 -1 -0 -0 -0 -0 0 0 1 1 1 1 1 1 -0 -1 -2 -3 -3 -4 -4 -4 -3 -3 -3 -2 -2 -1 -1 -1 -1 -1 -1 -1
1 0 1 1 1 0 0 1 1 2 2 2 2 2 2 3 2 2 2 3 3 3 3 2 2 2 2 2 2 3 3 3 2 2 2 1 1 1 1 1 0 -0 -0 -0 -0 -0 -0 -0 -0 -0 -0 -0 -1 -1 -1 -1 -1 -1 -1 -1 -1 -1 -2 -1 -1 -1 -1 -1 -1 -1 -1 -1 -1 -0 -0 -0 -0 -0 -0 -0 -0 1 2 3 3 2 1 -1 -2 -3 -3 -3 -3 -3 -3 -3 -3 -2 -2 -1 -1 -1 -2
2 2 2 2 2 1 1 1 2 2 2 2 3 3 3 3 2 2 2 2 2 2 2 2 2 2 1 2 2 2 2 2 2 2 2 1 1 1 1 1 0 0 -0 0 0 0 0 0 0 -0 -0 -0 -1 -1 -1 -1 -1 -1 -1 -1 -1 -1 -2 -2 -2 -2 -2 -2 -1 -1 -1 -1 -1 -1 -1 -1 -1 -1 -2 -2 -2 -2 -1 0 2 3 3 3 2 1 -0 -1 -1 -2 -2 -3 -3 -3 -3 -2 -2 -2 -2
4 4 3 3 2 2 2 2 2 2 2 3 3 3 3 2 2 2 2 2 2 2 2 1 1 1 1 1 1 1 2 2 2 2 2 1 1 1 1 1 0 0 0 0 0 0 1 1 0 0 0 -0 -0 -1 -1 -1 -1 -1 -1 -1 -1 -1 -1 -1 -2 -2 -2 -2 -2 -2 -1 -1 -1 -1 -1 -1 -1 -1 -2 -2 -3 -3 -3 -3 -2 -1 1 2 3 3 2 1 0 -0 -0 -1 -2 -3 -3 -3 -3 -2 -2
3 4 3 3 2 2 2 2 2 2 2 2 2 2 2 2 2 2 2 1 1 1 1 1 1 1 0 0 1 1 1 1 1 2 2 1 1 1 1 1 0 0 0 0 0 1 1 1 1 1 1 0 0 -0 -0 -1 -1 -1 -1 -1 -1 -1 -1 -1 -1 -1 -2 -2 -2 -2 -2 -2 -2 -2 -2 -2 -1 -1 -2 -2 -2 -3 -3 -4 -4 -4 -3 -2 -1 0 1 1 1 0 -0 -0 -1 -1 -2 -2 -2 -2 -2
1 1 2 2 3 2 2 2 2 2 2 2 2 2 2 2 2 2 1 1 1 1 1 1 0 0 -0 -0 -0 0 0 0 1 1 1 1 1 1 1 1 1 0 0 0 0 1 1 1 1 1 1 1 0 0 -0 -0 -0 -0 -0 -0 -0 -0 -0 -1 -1 -1 -1 -1 -1 -2 -2 -2 -2 -2 -2 -2 -2 -2 -2 -2 -2 -3 -3 -3 -4 -4 -4 -5 -4 -3 -2 -1 -0 -0 -0 -1 -1 -1 -1 -1 -1 -1 -1
-0 -0 1 2 2 2 2 2 2 2 2 2 2 2 2 2 2 2 1 1 1 1 0 0 0 -0 -0 -0 -0 -0 0 0 1 1 1 1 1 1 1 1 1 1 0 0 0 1 1 1 1 1 1 1 1 0 0 0 -0 -0 -0 -0 -0 -0 -0 -0 -0 -1 -1 -1 -1 -1 -1 -1 -2 -2 -2 -2 -2 -2 -2 -2 -2 -2 -3 -3 -3 -3 -3 -4 -4 -4 -4 -3 -2 -1 -1 -1 -1 -1 -1 -1 -1 -1 -1
-0 -1 -0 1 1 1 2 2 2 2 3 2 2 2 2 2 2 2 1 1 1 1 0 0 0 -0 -0 -0 0 0 0 1 1 1 1 1 1 1 1 1 1 1 1 1 1 1 1 1 1 1 1 1 1 0 0 0 0 -0 -0 -0 -0 -0 -0 -0 -0 -1 -1 -1 -1 -1 -1 -1 -1 -2 -2 -2 -1 -1 -1 -2 -2 -2 -2 -2 -2 -3 -2 -3 -3 -3 -3 -3 -3 -2 -0 -0 -1 -1 -1 -1 -1 -1 -1
1 -0 -0 0 1 1 2 2 2 2 3 2 2 2 2 2 2 1 1 1 1 1 1 0 0 0 0 0 1 1 1 1 1 1 1 1 1 1 1 1 1 1 1 1 1 1 1 1 1 1 1 1 0 0 0 0 0 0 0 -0 -0 -0 -0 -0 -0 -1 -1 -1 -1 -1 -1 -1 -1 -1 -1 -1 -1 -1 -1 -1 -1 -2 -2 -2 -2 -2 -2 -2 -2 -2 -2 -2 -2 -2 0 -0 -0 -0 -1 -1 -1 -1 -0
1 1 -0 -0 1 2 2 2 2 2 2 2 2 2 2 2 2 1 1 1 1 1 1 1 1 1 1 1 1 1 1 1 1 1 1 1 1 1 1 1 1 1 1 1 1 1 1 1 1 1 1 1 0 0 0 0 0 0 0 0 0 0 -0 -0 -0 -1 -1 -1 -1 -1 -1 -1 -1 -1 -1 -1 -1 -1 -1 -1 -1 -1 -2 -2 -2 -2 -2 -2 -2 -2 -2 -2 -2 -2 -1 -0 1 1 0 -0 -0 0 0
2 1 -0 -0 0 1 2 2 2 2 2 2 2 2 2 2 1 1 1 1 1 1 1 1 1 1 1 2 2 2 1 1 1 1 1 1 1 1 0 0 0 1 1 1 1 1 1 1 1 1 1 1 0 0 -0 0 1 1 1 1 1 1 0 0 -0 -0 -1 -1 -1 -1 -1 -1 -1 -1 -1 -1 -1 -1 -1 -1 -1 -1 -1 -1 -1 -2 -2 -2 -2 -2 -2 -2 -2 -2 -2 -1 -0 0 0 -0 0 0 1
2 1 -1 -1 -0 1 1 1 1 1 2 2 2 2 2 1 1 1 1 1 1 1 1 2 2 2 2 2 2 2 2 1 1 1 1 1 1 0 -0 -0 -0 -0 0 1 1 1 1 1 1 1 1 1 1 0 -0 0 1 1 1 1 1 1 1 0 0 -0 -0 -1 -1 -2 -2 -1 -1 -1 -1 -1 -1 -1 -1 -1 -0 -1 -1 -1 -1 -1 -1 -1 -1 -1 -2 -2 -2 -2 -2 -2 -2 -2 -1 -0 -0 -0 1
3 1 -0 -0 -0 0 1 1 1 1 2 2 2 2 2 1 1 1 1 1 2 2 2 2 2 2 2 2 2 1 1 1 0 0 0 0 0 -0 -0 -1 -1 -0 -0 0 0 1 1 1 1 1 2 1 1 0 -0 0 1 1 2 2 1 1 1 0 0 0 -0 -1 -1 -2 -2 -2 -1 -1 -1 -1 -2 -2 -1 -1 -1 -1 -1 -1 -1 -1 -1 -1 -1 -1 -1 -1 -2 -2 -2 -2 -2 -2 -2 -1 -0 -0 1
3 2 1 1 1 1 0 1 1 2 2 2 2 2 1 1 1 1 1 1 2 2 2 2 2 2 2 2 1 1 1 0 -0 -0 -0 -0 -1 -1 -1 -1 -1 -1 -1 -1 -0 0 0 0 1 1 2 2 1 1 0 0 1 1 2 2 1 1 0 0 0 0 0 -1 -1 -2 -2 -2 -2 -2 -2 -2 -2 -2 -2 -1 -1 -1 -0 -1 -1 -1 -1 -1 -1 -1 -1 -1 -1 -2 -1 -2 -2 -2 -2 -2 -1 0 1
4 3 3 2 1 1 1 1 1 2 2 2 2 2 2 1 2 2 1 1 2 2 1 1 1 1 1 1 1 1 0 -0 -0 -0 -1 -1 -1 -1 -1 -1 -1 -1 -1 -1 -0 -0 0 1 1 1 2 2 2 2 1 1 1 2 2 1 1 1 -0 -0 0 0 0 -0 -1 -1 -2 -2 -2 -1 -1 -2 -2 -2 -2 -2 -1 -1 -1 -1 -1 -1 -1 -1 -1 -1 -1 -1 -1 -1 -1 -1 -1 -2 -2 -2 -1 -0 1
4 3 3 2 1 1 1 1 2 2 2 2 2 2 2 2 2 1 1 1 1 1 1 1 1 1 1 1 1 1 0 -0 -1 -1 -1 -2 -1 -0 0 0 -1 -2 -1 -0 -0 -0 0 1 1 1 2 3 3 3 2 1 1 2 2 1 1 0 -0 0 1 1 1 0 -0 -1 -1 -1 -1 -1 -1 -1 -2 -2 -2 -2 -1 -1 -1 -1 -1 -1 -1 -1 -1 -1 -1 -2 -2 -1 -1 -1 -1 -1 -1 -2 -2 -1 1
4 3 2 0 -0 -0 1 2 2 3 3 3 3 2 1 1 1 1 0 1 1 1 0 1 2 1 1 0 -0 -0 -0 -1 -1 -1 0 -0 -1 -2 -1 -0 -0 -1 -2 -1 -0 0 -0 1 1 1 2 3 3 3 3 2 2 1 1 1 1 -0 -0 0 1 1 1 1 -0 -1 -1 -1 -1 -1 -1 -1 -1 -1 -1 -1 -1 -1 -1 -1 -1 -1 -1 -1 -1 -1 -1 -1 -2 -1 -1 -1 -1 -1 -1 -1 -2 -2 -1
3 2 -1 -2 -2 -0 2 2 3 3 3 3 3 2 1 0 -0 -0 -0 0 1 1 1 1 1 2 2 0 -1 -2 -1 -2 -1 -1 -0 -0 0 -0 -3 -3 -2 -1 -1 -1 -0 1 1 1 1 1 2 2 3 4 3 3 2 1 1 1 0 -0 -0 1 1 2 2 1 0 -0 -1 -1 -1 -1 -1 -1 -1 -1 -1 -1 -1 -1 -1 -1 -1 -1 -1 -1 -1 -1 -1 -1 -1 -1 -1 -1 -1 -0 -0 -0 -1 -2 -3
2 -0 -3 -2 -0 2 3 3 4 4 4 4 3 2 0 -0 -0 -0 0 1 1 1 2 1 0 1 2 1 -1 -2 -1 -2 -1 -0 0 -3 -1 1 1 -2 -2 -1 -3 -3 -1 1 3 2 1 1 1 2 3 4 3 3 2 2 1 1 0 0 0 1 2 2 2 1 0 -0 -0 -0 -1 -1 -1 -1 -1 -1 -1 -1 -1 -1 -1 -1 -1 -1 -1 -1 -1 -1 -1 -1 -1 -1 -1 -1 -1 -1 -0 -0 -0 -1 -2
-1 -2 -2 1 3 4 3 4 4 4 4 4 3 1 -0 0 0 0 1 1 1 1 1 1 0 -1 0 1 0 -1 -1 -1 -1 -0 2 -3 -3 -1 2 2 0 -2 -5 -2 -2 -0 6 2 -0 -1 2 2 2 3 3 3 2 2 1 1 0 0 1 2 2 2 2 1 0 -0 -0 -0 -0 -1 -1 -1 -1 -1 -2 -1 -1 -1 -1 -1 -1 -1 -1 -1 -1 -1 -1 -1 -1 -1 -1 -1 -1 -1 -1 -0 -0 -0 -1
-3 -2 2 4 4 4 4 4 4 4 4 4 2 1 -0 1 1 1 1 1 1 0 1 1 1 0 -2 -0 -0 -0 -1 -0 -1 -1 1 -0 -1 -2 -2 3 1 -3 -3 6 3 -2 -1 -2 -3 -3 2 3 2 2 2 3 2 1 1 1 1 1 1 2 2 2 1 1 0 -0 -0 -1 -1 -1 -1 -1 -1 -1 -2 -1 -1 -1 -1 -1 -1 -1 -1 -1 -1 -1 -1 -1 -1 -1 -1 -1 -1 -1 -1 -0 -0 -0 -1
-2 1 4 5 4 4 4 4 3 3 3 3 2 1 0 1 1 1 1 1 0 -0 1 0 1 1 -0 -2 -1 -1 -2 -1 -1 -1 -2 -0 2 2 -3 -3 -1 1 3 10 9 3 -5 -9 -7 -4 -2 3 3 1 1 3 2 1 2 1 1 1 2 2 2 1 1 0 -0 -0 -1 -1 -1 -1 -1 -1 -1 -1 -1 -1 -1 -1 -1 -1 -1 -1 -1 -1 -1 -1 -1 -1 -1 -1 -1 -1 -1 -1 -0 -0 -0 -0 -1
2 4 5 4 4 4 4 3 3 2 2 2 2 1 1 0 0 0 1 1 0 0 0 -1 -1 0 1 -1 -1 -2 -2 -3 -2 -1 -1 -2 2 5 3 -3 -1 4 5 6 8 8 -0 -12 -7 0 -2 2 2 1 -1 2 2 2 1 2 2 2 2 2 1 1 0 0 0 -0 -1 -1 -1 -1 -1 -1 -1 -1 -1 -1 -1 -1 -1 -1 -1 -1 -1 -0 -0 -1 -1 -1 -1 -1 -1 -1 -1 -0 -0 -0 -0 -1 -1
4 4 4 4 3 3 3 3 2 2 2 2 2 2 1 0 0 0 1 1 0 -0 -1 -1 -1 -1 1 1 -1 -3 -3 -4 -3 -1 1 -1 0 4 7 5 4 4 3 1 2 3 -2 -4 1 2 -7 -1 2 2 -2 1 2 2 1 1 2 2 2 2 1 1 0 0 0 -0 -1 -1 -1 -0 -0 -1 -1 -1 -1 -1 -1 -1 -2 -1 -1 -1 -1 -1 -1 -1 -1 -1 -1 -1 -1 -1 -1 -1 -0 -0 -0 -1 -1
3 3 3 3 3 3 2 2 2 2 2 2 2 2 1 1 0 0 -0 -0 -1 -1 -1 -0 -0 -1 -0 1 1 -1 -3 -2 -2 -1 3 2 2 2 5 6 5 5 5 1 -0 -3 -8 2 9 6 -11 -7 -0 5 1 1 2 2 2 2 2 2 3 2 1 1 1 1 0 -0 -0 -0 -0 -0 -0 -1 -1 -1 -1 -1 -1 -1 -2 -2 -2 -2 -1 -1 -1 -1 -1 -1 -1 -1 -1 -1 -1 -1 -1 -1 -1 -1 -1
2 2 2 2 2 2 1 1 1 2 2 2 2 2 2 1 -0 -1 -1 -0 -0 -0 0 0 0 0 -1 0 1 2 1 2 2 2 2 3 2 1 2 2 2 3 4 3 2 -0 -5 -1 5 6 -3 -7 -4 1 5 2 0 -1 0 2 3 3 3 2 1 1 1 1 0 0 0 0 0 0 -0 -1 -1 -1 -1 -1 -1 -1 -1 -2 -2 -2 -2 -1 -1 -1 -1 -1 -1 -1 -1 -1 -1 -1 -1 -1 -1 -1 -1
1 2 2 1 1 1 0 1 1 1 1 2 2 2 1 -0 -1 -1 -0 -0 0 0 0 0 1 1 1 -0 1 3 4 4 4 3 2 0 -0 -0 1 1 1 1 2 1 2 2 1 -0 -0 1 2 -1 -4 -4 2 1 -1 -2 -1 2 3 3 2 1 1 1 1 1 1 1 0 0 -0 -0 -0 -1 -1 -1 -1 -1 -1 -1 -1 -2 -2 -2 -2 -1 -1 -1 -1 -1 -1 -1 -2 -1 -1 -1 -1 -1 -1 -0 -1
0 2 2 1 1 1 1 1 1 1 1 1 1 1 0 -0 -1 -0 0 0 0 1 1 1 1 1 1 1 2 4 6 4 3 2 3 0 -2 -3 1 1 0 -0 2 1 1 2 2 1 0 0 -0 -0 -1 -2 -3 -0 2 3 2 3 3 3 1 1 1 1 1 1 1 1 0 -0 -1 -1 -1 -1 -1 -1 -0 -0 -1 -1 -1 -2 -2 -2 -1 -1 -0 -0 -0 -1 -1 -1 -2 -2 -2 -2 -1 -1 -1 -0 -0
1 2 2 2 1 1 1 1 0 -0 -0 -0 -0 -0 0 0 -0 -0 0 0 1 2 3 3 2 2 2 2 3 4 4 3 2 1 2 2 -1 -4 -1 1 0 -1 1 1 1 1 1 1 1 1 -1 -2 -1 0 0 0 2 3 3 2 2 2 1 1 2 2 1 1 1 1 0 -0 -1 -1 -1 -1 -1 -0 -0 -0 -1 -1 -2 -2 -2 -2 -1 -1 -1 -0 -0 -0 -0 -1 -2 -2 -2 -2 -2 -1 -1 -0 -0
Height
3171 3172 3172 3173 3174 3174 3175 3175 3176 3176 3177 3177 3178 3178 3179 3179 3179 3180 3180 3180 3181 3181 3181 3182 3182 3182 3182 3182 3182 3182 3183 3183 3183 3183 3183 3183 3183 3183 3183 3183 3183 3183 3183 3183 3183 3183 3183 3183 3183 3183 3184 3184 3183 3183 3183 3183 3183 3183 3183 3183 3182 3182 3182 3182 3182 3182 3182 3181 3181 3181 3181 3181 3181 3180 3180 3180 3180 3180 3179 3179 3179 3179 3179 3178 3178 3178 3177 3177 3177 3176 3176 3176 3175 3175 3175 3175 3174 3174 3174 3173 3173 3173 3172
3171 3172 3172 3173 3174 3174 3175 3175 3176 3177 3177 3178 3178 3179 3179 3179 3180 3180 3180 3181 3181 3181 3181 3182 3182 3182 3182 3182 3182 3182 3183 3183 3183 3183 3183 3183 3183 3183 3183 3183 3183 3183 3183 3183 3183 3184 3183 3184 3184 3184 3184 3184 3184 3184 3183 3183 3183 3183 3183 3183 3183 3183 3183 3182 3182 3182 3182 3182 3182 3182 3181 3181 3181 3181 3181 3180 3180 3180 3180 3179 3179 3179 3179 3178 3178 3178 3177 3177 3177 3176 3176 3176 3175 3175 3175 3174 3174 3174 3174 3173 3173 3173 3172
3171 3172 3172 3173 3174 3174 3175 3175 3176 3177 3177 3178 3178 3179 3179 3179 3180 3180 3180 3181 3181 3182 3182 3182 3182 3182 3182 3182 3182 3182 3183 3183 3183 3183 3183 3183 3183 3183 3184 3184 3184 3184 3184 3184 3184 3184 3184 3184 3184 3184 3184 3184 3184 3184 3184 3184 3184 3184 3184 3184 3183 3183 3183 3183 3183 3182 3182 3182 3182 3182 3182 3182 3181 3181 3181 3181 3180 3180 3180 3180 3179 3179 3179 3179 3178 3178 3178 3177 3177 3177 3176 3176 3175 3175 3175 3174 3174 3174 3174 3173 3173 3172 3172
3171 3172 3172 3173 3174 3174 3175 3176 3176 3177 3177 3178 3178 3179 3179 3180 3180 3180 3181 3181 3181 3182 3182 3182 3182 3182 3182 3182 3182 3183 3183 3183 3183 3183 3184 3184 3184 3184 3184 3184 3184 3184 3184 3184 3184 3184 3184 3184 3184 3185 3185 3185 3184 3184 3184 3184 3184 3184 3184 3184 3184 3184 3183 3183 3183 3183 3183 3182 3182 3182 3182 3182 3182 3181 3181 3181 3181 3180 3180 3180 3179 3179 3179 3179 3178 3178 3178 3177 3177 3177 3176 3176 3175 3175 3175 3174 3174 3174 3173 3173 3173 3172 3172
3171 3172 3172 3173 3174 3174 3175 3176 3176 3177 3177 3178 3179 3179 3179 3180 3180 3181 3181 3181 3181 3182 3182 3182 3182 3182 3182 3182 3183 3183 3183 3183 3183 3184 3184 3184 3184 3184 3184 3184 3184 3185 3185 3185 3185 3185 3185 3185 3185 3185 3185 3185 3185 3185 3184 3184 3184 3184 3184 3184 3184 3184 3184 3183 3183 3183 3183 3183 3182 3182 3182 3182 3182 3181 3181 3181 3181 3180 3180 3180 3179 3179 3179 3179 3179 3178 3178 3177 3177 3177 3176 3176 3175 3175 3174 3174 3174 3174 3173 3173 3172 3172 3171
3171 3172 3172 3173 3174 3174 3175 3176 3176 3177 3178 3178 3179 3179 3180 3180 3180 3181 3181 3181 3181 3182 3182 3182 3182 3182 3183 3183 3183 3183 3184 3184 3184 3184 3184 3184 3184 3185 3185 3185 3185 3185 3185 3185 3185 3185 3185 3185 3185 3185 3185 3185 3185 3185 3185 3185 3185 3184 3184 3184 3184 3184 3184 3184 3183 3183 3183 3183 3183 3182 3182 3182 3182 3181 3181 3181 3181 3181 3180 3180 3180 3179 3179 3179 3179 3178 3178 3177 3177 3177 3176 3176 3175 3175 3174 3174 3174 3173 3173 3172 3172 3172 3171
3171 3172 3172 3173 3174 3174 3175 3176 3176 3177 3178 3178 3179 3179 3180 3180 3180 3181 3181 3181 3181 3182 3182 3182 3182 3183 3183 3183 3183 3184 3184 3184 3184 3184 3184 3185 3185 3185 3185 3185 3185 3185 3185 3185 3185 3185 3185 3186 3186 3186 3185 3185 3185 3185 3185 3185 3185 3185 3185 3184 3184 3184 3184 3184 3184 3183 3183 3183 3183 3182 3182 3182 3182 3181 3181 3181 3181 3180 3180 3180 3180 3179 3179 3179 3178 3178 3178 3177 3177 3177 3176 3176 3175 3175 3174 3174 3173 3173 3173 3172 3172 3171 3171
3171 3171 3172 3173 3174 3174 3175 3176 3176 3177 3178 3178 3179 3179 3180 3180 3180 3181 3181 3181 3181 3182 3182 3182 3183 3183 3183 3183 3184 3184 3184 3184 3184 3185 3185 3185 3185 3185 3185 3186 3186 3186 3186 3186 3186 3186 3186 3186 3186 3186 3186 3186 3185 3185 3185 3185 3185 3185 3185 3185 3184 3184 3184 3184 3184 3183 3183 3183 3183 3182 3182 3182 3182 3181 3181 3181 3181 3180 3180 3180 3179 3179 3179 3179 3178 3178 3178 3177 3177 3176 3176 3175 3175 3175 3174 3174 3173 3173 3172 3172 3171 3171 3170
3171 3171 3172 3173 3174 3174 3175 3176 3176 3177 3178 3178 3179 3179 3180 3180 3180 3181 3181 3181 3182 3182 3182 3183 3183 3183 3183 3184 3184 3184 3184 3185 3185 3185 3185 3185 3186 3186 3186 3186 3186 3186 3186 3186 3186 3186 3186 3186 3186 3186 3186 3186 3186 3186 3185 3185 3185 3185 3185 3185 3184 3184 3184 3184 3184 3184 3183 3183 3183 3183 3182 3182 3182 3181 3181 3181 3180 3180 3180 3179 3179 3179 3179 3178 3178 3178 3177 3177 3176 3176 3176 3175 3175 3174 3174 3174 3173 3173 3172 3172 3171 3171 3170
3170 3171 3172 3173 3174 3174 3175 3176 3176 3177 3178 3178 3179 3179 3180 3180 3180 3180 3181 3181 3182 3182 3183 3183 3183 3184 3184 3184 3184 3184 3185 3185 3185 3185 3186 3186 3186 3186 3186 3186 3186 3186 3186 3186 3186 3186 3186 3186 3186 3186 3186 3186 3186 3186 3186 3185 3185 3185 3185 3185 3184 3184 3184 3184 3184 3184 3183 3183 3183 3183 3182 3182 3182 3181 3181 3180 3180 3180 3179 3179 3179 3179 3178 3178 3178 3177 3177 3176 3176 3176 3175 3175 3174 3174 3174 3173 3173 3172 3172 3171 3171 3170 3170
3170 3171 3172 3173 3174 3174 3175 3176 3176 3177 3178 3178 3179 3179 3180 3180 3180 3181 3181 3182 3182 3182 3183 3183 3184 3184 3184 3184 3184 3185 3185 3185 3186 3186 3186 3186 3186 3186 3186 3186 3186 3186 3186 3186 3186 3186 3186 3186 3186 3186 3186 3186 3186 3186 3186 3186 3185 3185 3185 3185 3185 3184 3184 3184 3184 3184 3184 3183 3183 3183 3182 3182 3181 3181 3181 3180 3180 3179 3179 3179 3179 3178 3178 3178 3177 3177 3176 3176 3176 3175 3175 3174 3174 3174 3173 3173 3172 3172 3172 3171 3170 3170 3169
3170 3171 3172 3173 3174 3174 3175 3176 3176 3177 3178 3178 3179 3179 3180 3180 3180 3181 3181 3182 3182 3183 3183 3184 3184 3184 3184 3184 3185 3185 3185 3186 3186 3186 3186 3186 3187 3187 3187 3187 3187 3187 3187 3187 3186 3186 3186 3186 3186 3186 3186 3186 3186 3186 3186 3186 3186 3185 3185 3185 3185 3184 3184 3184 3184 3184 3184 3183 3183 3183 3182 3182 3181 3181 3181 3180 3180 3179 3179 3179 3178 3178 3177 3177 3177 3176 3176 3176 3175 3175 3174 3174 3174 3173 3173 3172 3172 3171 3171 3171 3170 3170 3169
3170 3171 3172 3173 3174 3174 3175 3175 3176 3177 3177 3178 3179 3179 3180 3180 3181 3181 3182 3182 3183 3183 3183 3184 3184 3184 3184 3185 3185 3185 3186 3186 3186 3186 3186 3187 3187 3187 3187 3187 3187 3187 3187 3187 3187 3187 3187 3187 3187 3187 3186 3186 3186 3186 3186 3186 3186 3186 3185 3185 3185 3185 3184 3184 3184 3184 3184 3183 3183 3183 3182 3182 3181 3181 3181 3180 3180 3179 3179 3179 3178 3178 3177 3177 3176 3176 3176 3175 3175 3174 3174 3174 3173 3173 3172 3172 3171 3171 3171 3170 3170 3169 3169
3170 3171 3172 3173 3173 3174 3175 3175 3176 3177 3177 3178 3179 3179 3180 3180 3181 3181 3182 3182 3183 3183 3184 3184 3184 3184 3184 3185 3185 3185 3186 3186 3186 3186 3187 3187 3187 3187 3187 3187 3187 3187 3187 3187 3187 3187 3187 3187 3187 3187 3187 3186 3186 3186 3186 3186 3186 3186 3185 3185 3185 3185 3184 3184 3184 3184 3184 3183 3183 3183 3182 3182 3181 3181 3181 3180 3180 3179 3179 3179 3178 3178 3177 3177 3176 3176 3175 3175 3174 3174 3174 3174 3173 3173 3172 3172 3171 3171 3170 3170 3169 3169 3169
3170 3171 3172 3173 3173 3174 3174 3175 3176 3176 3177 3178 3179 3179 3180 3180 3181 3181 3182 3183 3183 3183 3184 3184 3184 3184 3185 3185 3185 3186 3186 3186 3187 3187 3187 3187 3187 3187 3187 3187 3187 3187 3187 3187 3187 3187 3187 3187 3187 3187 3187 3187 3186 3186 3186 3186 3186 3186 3185 3185 3185 3185 3184 3184 3184 3184 3184 3183 3183 3183 3182 3182 3181 3181 3181 3180 3180 3179 3179 3179 3178 3178 3177 3177 3176 3176 3175 3175 3174 3174 3174 3173 3173 3172 3172 3171 3171 3170 3170 3169 3169 3169 3168
3170 3171 3172 3172 3173 3174 3174 3175 3176 3176 3177 3178 3179 3179 3180 3180 3181 3182 3182 3183 3183 3183 3184 3184 3184 3185 3185 3185 3186 3186 3186 3187 3187 3187 3187 3187 3187 3187 3188 3188 3188 3188 3188 3188 3188 3188 3187 3187 3187 3187 3187 3186 3186 3186 3186 3186 3186 3186 3185 3185 3185 3185 3184 3184 3184 3184 3184 3183 3183 3183 3182 3182 3181 3181 3181 3180 3180 3179 3179 3179 3178 3178 3177 3177 3176 3176 3175 3175 3174 3174 3173 3173 3173 3172 3172 3171 3171 3170 3170 3169 3169 3168 3168
3170 3171 3171 3172 3173 3174 3174 3175 3176 3177 3177 3178 3179 3179 3180 3181 3181 3182 3182 3183 3183 3184 3184 3184 3185 3185 3185 3186 3186 3186 3187 3187 3187 3187 3187 3188 3188 3188 3188 3188 3188 3188 3188 3188 3188 3188 3188 3187 3187 3187 3187 3187 3186 3186 3186 3186 3186 3186 3185 3185 3185 3185 3185 3184 3184 3184 3184 3183 3183 3183 3182 3182 3181 3181 3181 3180 3180 3179 3179 3179 3178 3178 3177 3177 3176 3176 3175 3175 3174 3174 3173 3173 3172 3172 3171 3171 3170 3170 3169 3169 3169 3168 3167
3169 3171 3171 3172 3173 3174 3174 3175 3176 3177 3178 3178 3179 3179 3180 3181 3181 3182 3182 3183 3183 3184 3184 3184 3185 3185 3186 3186 3186 3187 3187 3187 3188 3188 3188 3188 3188 3188 3188 3188 3188 3188 3188 3188 3188 3188 3188 3188 3187 3187 3187 3187 3187 3186 3186 3186 3186 3186 3185 3185 3185 3185 3185 3184 3184 3184 3184 3183 3183 3183 3182 3182 3181 3181 3181 3180 3180 3179 3179 3179 3178 3178 3177 3177 3176 3176 3175 3174 3174 3174 3173 3172 3172 3171 3171 3170 3170 3170 3169 3169 3168 3168 3167
3169 3170 3171 3172 3173 3174 3174 3175 3176 3177 3178 3178 3179 3179 3180 3181 3181 3182 3182 3183 3183 3184 3184 3185 3185 3185 3186 3186 3187 3187 3188 3188 3188 3188 3188 3188 3188 3188 3188 3188 3188 3188 3188 3188 3188 3188 3188 3188 3188 3187 3187 3187 3187 3186 3186 3186 3186 3186 3186 3185 3185 3185 3185 3184 3184 3184 3184 3183 3183 3183 3182 3182 3181 3181 3181 3180 3180 3179 3179 3178 3178 3177 3177 3176 3176 3175 3175 3174 3174 3173 3173 3172 3172 3171 3171 3170 3169 3169 3169 3168 3168 3167 3167
3169 3169 3171 3172 3173 3173 3174 3175 3176 3177 3178 3178 3179 3179 3180 3181 3181 3182 3182 3183 3183 3184 3184 3185 3185 3186 3186 3187 3187 3187 3188 3188 3188 3188 3188 3188 3188 3188 3188 3188 3188 3188 3188 3188 3188 3188 3188 3188 3188 3188 3187 3187 3187 3187 3186 3186 3186 3186 3186 3185 3185 3185 3185 3184 3184 3184 3184 3183 3183 3182 3182 3182 3181 3181 3180 3180 3179 3179 3179 3178 3178 3177 3177 3176 3176 3175 3174 3174 3173 3173 3172 3172 3171 3171 3170 3170 3169 3169 3168 3168 3167 3167 3166
3168 3169 3170 3171 3172 3173 3174 3175 3176 3177 3178 3178 3179 3179 3180 3180 3181 3182 3182 3183 3183 3184 3184 3185 3185 3186 3186 3187 3187 3188 3188 3188 3188 3188 3188 3188 3188 3188 3188 3188 3188 3188 3188 3188 3188 3188 3188 3188 3188 3188 3188 3187 3187 3187 3187 3186 3186 3186 3186 3185 3185 3185 3185 3184 3184 3184 3184 3183 3183 3182 3182 3181 3181 3181 3180 3180 3179 3179 3179 3178 3177 3177 3176 3176 3175 3175 3174 3174 3173 3172 3172 3171 3171 3170 3170 3169 3169 3168 3168 3167 3167 3166 3166
3168 3169 3170 3171 3172 3173 3174 3175 3176 3177 3177 3178 3179 3179 3180 3180 3181 3181 3182 3183 3184 3184 3184 3185 3186 3186 3187 3187 3187 3188 3188 3188 3188 3188 3188 3188 3188 3188 3188 3188 3188 3188 3188 3188 3188 3188 3188 3188 3188 3188 3188 3187 3187 3187 3187 3186 3186 3186 3186 3185 3185 3185 3184 3184 3184 3184 3183 3183 3183 3182 3182 3181 3181 3180 3180 3179 3179 3179 3178 3178 3177 3177 3176 3175 3175 3174 3174 3173 3173 3172 3171 3171 3170 3170 3169 3169 3168 3168 3167 3167 3166 3166 3165
3168 3169 3169 3170 3171 3172 3173 3174 3175 3176 3177 3178 3178 3179 3180 3180 3181 3181 3182 3183 3184 3184 3185 3185 3186 3186 3187 3187 3187 3188 3188 3188 3188 3188 3188 3188 3188 3188 3189 3189 3188 3188 3189 3189 3189 3188 3188 3188 3188 3188 3188 3188 3187 3187 3187 3187 3186 3186 3186 3185 3185 3185 3184 3184 3184 3184 3183 3183 3182 3182 3182 3181 3181 3180 3180 3179 3179 3179 3178 3178 3177 3176 3176 3175 3175 3174 3174 3173 3172 3172 3171 3170 3170 3169 3169 3169 3168 3167 3167 3166 3166 3165 3165
3167 3168 3169 3170 3171 3172 3173 3174 3175 3176 3177 3177 3178 3179 3179 3180 3180 3181 3182 3183 3184 3184 3185 3185 3186 3186 3187 3187 3187 3188 3188 3188 3188 3188 3188 3188 3188 3189 3189 3189 3189 3189 3189 3189 3189 3188 3188 3188 3188 3188 3188 3188 3187 3187 3187 3187 3186 3186 3186 3185 3185 3185 3184 3184 3184 3183 3183 3183 3182 3182 3181 3181 3180 3180 3179 3179 3179 3178 3178 3177 3177 3176 3176 3175 3174 3174 3173 3173 3172 3171 3171 3170 3170 3169 3169 3168 3168 3167 3166 3166 3165 3165 3164
3167 3168 3169 3170 3171 3172 3173 3174 3174 3175 3176 3177 3177 3178 3179 3179 3180 3181 3182 3183 3183 3184 3184 3185 3185 3186 3186 3187 3187 3187 3188 3188 3188 3188 3188 3188 3188 3189 3189 3189 3189 3189 3189 3189 3189 3188 3188 3188 3188 3188 3188 3187 3187 3187 3187 3186 3186 3186 3186 3185 3185 3185 3184 3184 3184 3183 3183 3182 3182 3182 3181 3181 3180 3180 3179 3179 3179 3178 3178 3177 3177 3176 3175 3175 3174 3174 3173 3172 3172 3171 3170 3170 3169 3169 3168 3168 3167 3167 3166 3165 3165 3164 3164
3166 3168 3169 3169 3170 3172 3172 3173 3174 3175 3176 3176 3177 3178 3179 3179 3180 3181 3182 3183 3183 3184 3184 3185 3185 3186 3186 3187 3187 3187 3188 3188 3188 3188 3188 3188 3188 3188 3188 3188 3188 3188 3188 3188 3188 3188 3188 3188 3188 3188 3188 3187 3187 3187 3187 3186 3186 3186 3185 3185 3185 3184 3184 3184 3183 3183 3183 3182 3182 3181 3181 3181 3180 3180 3179 3179 3179 3178 3178 3177 3177 3176 3175 3175 3174 3174 3173 3172 3171 3171 3170 3169 3169 3168 3168 3167 3167 3166 3165 3165 3164 3164 3163
3166 3167 3168 3169 3170 3171 3172 3173 3174 3174 3175 3176 3177 3177 3178 3179 3180 3181 3182 3182 3183 3184 3184 3184 3185 3185 3186 3186 3187 3187 3188 3188 3188 3188 3188 3188 3188 3188 3188 3188 3188 3188 3188 3188 3188 3188 3188 3188 3188 3188 3187 3187 3187 3187 3186 3186 3186 3186 3185 3185 3185 3184 3184 3184 3183 3183 3182 3182 3182 3181 3181 3180 3180 3180 3179 3179 3178 3178 3177 3177 3176 3176 3175 3175 3174 3173 3173 3172 3171 3170 3170 3169 3169 3168 3167 3167 3166 3166 3165 3164 3164 3163 3163
3166 3167 3168 3169 3170 3171 3172 3173 3174 3174 3175 3176 3177 3177 3178 3179 3180 3181 3181 3182 3183 3184 3184 3184 3185 3185 3186 3186 3187 3187 3187 3188 3188 3188 3188 3188 3188 3188 3188 3188 3188 3188 3188 3188 3188 3188 3188 3188 3187 3187 3187 3187 3187 3187 3186 3186 3186 3185 3185 3185 3184 3184 3184 3184 3183 3183 3182 3182 3181 3181 3180 3180 3180 3179 3179 3179 3178 3178 3177 3177 3176 3175 3175 3174 3174 3173 3172 3172 3171 3170 3169 3169 3168 3168 3167 3166 3166 3165 3164 3164 3163 3163 3162
3166 3167 3168 3169 3170 3171 3172 3173 3174 3174 3175 3176 3176 3177 3178 3179 3180 3181 3181 3182 3183 3183 3184 3184 3185 3185 3186 3186 3186 3187 3187 3187 3187 3188 3188 3188 3188 3188 3188 3188 3188 3188 3188 3188 3188 3188 3188 3187 3187 3187 3187 3187 3186 3186 3186 3186 3185 3185 3185 3184 3184 3184 3184 3183 3183 3182 3182 3182 3181 3181 3180 3180 3179 3179 3179 3178 3178 3177 3177 3176 3175 3175 3174 3174 3173 3173 3172 3171 3171 3170 3169 3169 3168 3167 3167 3166 3165 3164 3164 3163 3163 3162 3161
3166 3167 3168 3169 3170 3171 3172 3173 3174 3174 3175 3175 3176 3177 3178 3179 3180 3180 3181 3182 3183 3183 3184 3184 3185 3185 3186 3186 3186 3187 3187 3187 3187 3187 3187 3187 3187 3188 3188 3188 3188 3188 3188 3188 3187 3187 3187 3187 3187 3187 3187 3186 3186 3186 3186 3185 3185 3185 3184 3184 3184 3184 3183 3183 3183 3182 3182 3181 3181 3180 3180 3179 3179 3179 3178 3178 3177 3177 3176 3175 3175 3174 3174 3173 3173 3172 3171 3171 3170 3169 3169 3168 3168 3167 3166 3165 3165 3164 3164 3163 3162 3161 3161
3165 3167 3168 3169 3170 3171 3172 3173 3174 3174 3175 3175 3176 3177 3178 3179 3180 3180 3181 3182 3183 3183 3184 3184 3184 3185 3185 3186 3186 3186 3186 3187 3187 3187 3187 3187 3187 3187 3187 3187 3187 3187 3187 3187 3187 3187 3187 3187 3187 3187 3186 3186 3186 3186 3185 3185 3185 3184 3184 3184 3184 3183 3183 3183 3182 3182 3181 3181 3180 3180 3180 3179 3179 3178 3178 3177 3177 3176 3176 3175 3174 3174 3173 3173 3172 3171 3171 3170 3169 3169 3168 3168 3167 3166 3166 3165 3164 3164 3163 3162 3161 3161 3160
3165 3166 3167 3169 3169 3171 3172 3173 3174 3174 3175 3175 3176 3177 3178 3179 3179 3180 3181 3182 3183 3183 3184 3184 3184 3185 3185 3185 3186 3186 3186 3186 3187 3187 3187 3187 3187 3187 3187 3187 3187 3187 3187 3187 3187 3187 3187 3187 3186 3186 3186 3186 3185 3185 3185 3185 3184 3184 3184 3184 3183 3183 3183 3182 3182 3181 3181 3181 3180 3180 3179 3179 3179 3178 3178 3177 3177 3176 3175 3175 3174 3174 3173 3172 3172 3171 3170 3169 3169 3168 3168 3167 3166 3166 3165 3164 3164 3163 3162 3161 3161 3160 3159
3165 3166 3167 3168 3169 3170 3172 3173 3174 3174 3175 3175 3176 3177 3178 3179 3179 3180 3181 3182 3182 3183 3183 3184 3184 3184 3185 3185 3185 3185 3186 3186 3186 3186 3186 3187 3187 3187 3187 3187 3187 3187 3187 3187 3187 3187 3186 3186 3186 3186 3186 3185 3185 3185 3185 3184 3184 3184 3184 3183 3183 3183 3182 3182 3181 3181 3180 3180 3180 3179 3179 3178 3178 3177 3177 3177 3176 3176 3175 3175 3174 3174 3173 3172 3172 3171 3170 3169 3168 3168 3167 3166 3165 3165 3164 3164 3163 3162 3161 3161 3160 3159 3158
3165 3166 3167 3168 3169 3170 3171 3172 3173 3174 3174 3175 3176 3177 3178 3178 3179 3180 3181 3181 3182 3182 3183 3183 3184 3184 3184 3184 3185 3185 3185 3186 3186 3186 3186 3186 3186 3186 3186 3186 3186 3186 3186 3186 3186 3186 3186 3186 3186 3186 3185 3185 3185 3184 3184 3184 3184 3184 3183 3183 3182 3182 3182 3181 3181 3180 3180 3180 3179 3179 3178 3178 3177 3177 3176 3176 3175 3175 3174 3174 3174 3173 3173 3172 3172 3171 3170 3169 3168 3167 3167 3166 3165 3164 3164 3163 3162 3161 3161 3160 3159 3158 3157
3165 3166 3167 3168 3169 3170 3171 3172 3173 3174 3174 3175 3176 3176 3177 3178 3179 3179 3180 3181 3181 3182 3182 3183 3183 3184 3184 3184 3184 3185 3185 3185 3185 3185 3186 3186 3186 3186 3186 3186 3186 3186 3186 3186 3186 3186 3186 3186 3185 3185 3185 3185 3184 3184 3184 3184 3183 3183 3183 3182 3182 3182 3181 3181 3180 3180 3179 3179 3179 3178 3178 3177 3177 3176 3176 3175 3175 3174 3174 3173 3173 3172 3172 3171 3171 3170 3170 3169 3168 3167 3166 3165 3164 3164 3163 3162 3161 3161 3160 3159 3159 3158 3157
3164 3166 3167 3168 3169 3170 3171 3172 3172 3173 3174 3175 3175 3176 3177 3178 3178 3179 3179 3180 3181 3181 3182 3182 3183 3183 3183 3184 3184 3184 3184 3185 3185 3185 3185 3185 3185 3186 3186 3186 3186 3186 3186 3186 3186 3186 3185 3185 3185 3185 3184 3184 3184 3184 3183 3183 3183 3182 3182 3182 3181 3181 3180 3180 3180 3179 3179 3179 3178 3178 3177 3177 3176 3176 3175 3175 3174 3174 3173 3173 3172 3172 3171 3171 3170 3170 3169 3169 3168 3167 3166 3165 3164 3164 3163 3162 3161 3160 3159 3159 3158 3157 3156
3164 3165 3166 3167 3169 3169 3170 3171 3172 3173 3174 3174 3175 3175 3176 3177 3178 3178 3179 3179 3180 3181 3181 3181 3182 3182 3183 3183 3184 3184 3184 3184 3184 3185 3185 3185 3185 3185 3185 3185 3185 3186 3185 3185 3185 3185 3185 3185 3184 3184 3184 3184 3184 3183 3183 3182 3182 3182 3181 3181 3181 3180 3180 3179 3179 3179 3178 3178 3178 3177 3177 3176 3176 3175 3175 3174 3174 3173 3173 3172 3171 3171 3170 3170 3169 3169 3168 3168 3167 3166 3166 3165 3164 3163 3162 3161 3160 3160 3159 3158 3157 3156 3156
3163 3164 3165 3167 3168 3169 3170 3171 3171 3172 3173 3174 3174 3175 3176 3176 3177 3178 3178 3179 3179 3180 3180 3181 3181 3182 3182 3183 3183 3183 3184 3184 3184 3184 3184 3184 3185 3185 3185 3185 3185 3185 3185 3185 3185 3185 3184 3184 3184 3184 3184 3183 3183 3183 3182 3182 3181 3181 3181 3180 3180 3179 3179 3179 3179 3178 3178 3177 3177 3176 3176 3176 3175 3174 3174 3174 3173 3173 3172 3172 3171 3170 3170 3169 3169 3168 3168 3167 3166 3166 3165 3164 3163 3162 3162 3161 3160 3159 3158 3158 3157 3156 3155
3162 3164 3165 3166 3167 3168 3169 3170 3171 3172 3172 3173 3174 3174 3175 3176 3176 3177 3178 3178 3179 3179 3180 3180 3181 3181 3181 3182 3182 3183 3183 3183 3183 3184 3184 3184 3184 3184 3184 3184 3184 3184 3184 3184 3184 3184 3184 3184 3184 3183 3183 3183 3182 3182 3181 3181 3181 3180 3180 3180 3179 3179 3179 3178 3178 3177 3177 3176 3176 3176 3175 3175 3174 3174 3174 3173 3173 3172 3172 3171 3170 3170 3169 3169 3168 3167 3167 3166 3165 3165 3164 3163 3163 3162 3161 3160 3159 3159 3158 3157 3156 3155 3154
3162 3163 3164 3166 3167 3168 3169 3169 3170 3171 3172 3173 3173 3174 3174 3175 3176 3177 3177 3178 3178 3179 3179 3179 3180 3180 3181 3181 3182 3182 3182 3182 3183 3183 3183 3183 3184 3184 3184 3184 3184 3184 3184 3184 3184 3184 3183 3183 3183 3183 3182 3182 3182 3181 3181 3180 3180 3179 3179 3179 3179 3178 3178 3177 3177 3176 3176 3176 3175 3175 3174 3174 3174 3174 3173 3173 3172 3172 3171 3170 3170 3169 3169 3168 3167 3167 3166 3165 3165 3164 3163 3162 3162 3161 3160 3160 3159 3158 3157 3156 3155 3154 3154
3162 3163 3164 3165 3166 3167 3168 3169 3170 3170 3171 3172 3173 3173 3174 3175 3175 3176 3177 3177 3178 3178 3178 3179 3179 3180 3180 3180 3181 3181 3181 3182 3182 3182 3182 3183 3183 3183 3183 3183 3183 3183 3183 3183 3183 3183 3183 3182 3182 3182 3181 3181 3181 3180 3180 3180 3179 3179 3179 3178 3178 3177 3177 3176 3176 3176 3175 3175 3174 3174 3174 3173 3173 3173 3172 3172 3171 3171 3170 3170 3169 3169 3168 3167 3167 3166 3165 3165 3164 3163 3162 3162 3161 3160 3160 3159 3158 3157 3157 3156 3155 3154 3153
3162 3163 3164 3165 3166 3167 3168 3168 3169 3170 3171 3171 3172 3173 3174 3174 3175 3175 3176 3177 3177 3178 3178 3178 3179 3179 3179 3179 3180 3180 3181 3181 3181 3181 3182 3182 3182 3182 3182 3182 3182 3182 3182 3182 3182 3182 3182 3181 3181 3181 3181 3180 3180 3179 3179 3179 3179 3178 3178 3177 3177 3176 3176 3175 3175 3175 3174 3174 3174 3173 3173 3173 3172 3172 3171 3171 3170 3170 3169 3169 3169 3168 3167 3166 3166 3165 3164 3164 3163 3162 3162 3161 3160 3159 3159 3158 3158 3157 3156 3155 3154 3153 3152
3161 3162 3163 3164 3165 3166 3167 3168 3169 3169 3170 3171 3172 3172 3173 3174 3174 3175 3175 3176 3176 3177 3177 3178 3178 3178 3179 3179 3179 3179 3180 3180 3180 3180 3181 3181 3181 3181 3181 3181 3181 3181 3181 3181 3181 3181 3181 3180 3180 3180 3180 3179 3179 3179 3178 3178 3178 3177 3177 3176 3176 3175 3175 3174 3174 3174 3174 3173 3173 3173 3172 3172 3171 3171 3170 3170 3170 3169 3169 3168 3168 3167 3166 3165 3165 3164 3164 3163 3162 3162 3161 3160 3159 3159 3158 3157 3157 3156 3155 3154 3154 3153 3152
3160 3162 3163 3164 3164 3165 3166 3167 3168 3169 3169 3170 3171 3172 3173 3173 3174 3174 3175 3175 3176 3176 3177 3177 3177 3178 3178 3178 3178 3179 3179 3179 3179 3179 3180 3180 3180 3180 3180 3180 3180 3180 3180 3180 3180 3180 3180 3180 3179 3179 3179 3178 3178 3178 3177 3177 3176 3176 3176 3175 3175 3174 3174 3174 3173 3173 3173 3172 3172 3172 3171 3171 3170 3170 3169 3169 3169 3168 3168 3167 3167 3166 3165 3165 3164 3164 3163 3162 3161 3161 3160 3159 3159 3158 3157 3156 3155 3155 3154 3154 3153 3152 3151
3159 3161 3162 3163 3164 3165 3166 3167 3167 3168 3169 3170 3171 3172 3172 3173 3173 3174 3174 3175 3175 3176 3176 3176 3176 3177 3177 3177 3177 3178 3178 3178 3178 3179 3179 3179 3179 3179 3179 3179 3179 3179 3179 3179 3179 3179 3179 3179 3178 3178 3178 3177 3177 3177 3176 3176 3175 3175 3174 3174 3174 3173 3173 3173 3172 3172 3172 3171 3171 3171 3170 3170 3169 3169 3169 3168 3168 3167 3167 3166 3166 3165 3164 3164 3163 3163 3162 3161 3161 3160 3159 3159 3158 3157 3156 3155 3154 3154 3153 3152 3152 3151 3150
3159 3160 3161 3162 3163 3164 3165 3166 3167 3168 3169 3169 3170 3171 3172 3172 3173 3173 3174 3174 3174 3175 3175 3175 3175 3176 3176 3176 3176 3177 3177 3177 3177 3178 3178 3178 3178 3178 3178 3178 3178 3179 3179 3179 3178 3178 3178 3178 3177 3177 3177 3176 3176 3175 3175 3174 3174 3174 3174 3173 3173 3172 3172 3171 3171 3171 3171 3170 3170 3169 3169 3169 3168 3168 3168 3167 3167 3166 3166 3165 3165 3164 3164 3163 3162 3162 3161 3160 3160 3159 3159 3158 3157 3156 3155 3154 3154 3153 3152 3151 3151 3150 3149
3158 3159 3160 3162 3163 3164 3164 3165 3166 3167 3168 3169 3169 3170 3171 3171 3172 3173 3173 3173 3174 3174 3174 3174 3174 3174 3175 3175 3175 3176 3176 3176 3176 3177 3177 3177 3177 3177 3177 3177 3177 3177 3177 3177 3177 3177 3177 3177 3176 3176 3176 3175 3175 3174 3174 3173 3173 3173 3172 3172 3171 3171 3170 3170 3170 3170 3170 3169 3169 3169 3168 3168 3167 3167 3167 3166 3166 3165 3165 3164 3164 3163 3162 3162 3161 3161 3160 3159 3159 3158 3158 3157 3156 3155 3154 3154 3153 3152 3151 3150 3149 3149 3148
3157 3159 3160 3161 3162 3163 3164 3164 3165 3166 3167 3168 3169 3169 3170 3170 3171 3171 3172 3172 3172 3173 3173 3173 3173 3174 3174 3174 3174 3175 3175 3175 3175 3175 3175 3175 3176 3176 3176 3176 3176 3176 3176 3176 3176 3176 3175 3175 3175 3175 3174 3174 3174 3173 3173 3172 3172 3171 3171 3171 3170 3170 3169 3169 3169 3169 3169 3169 3168 3168 3167 3167 3166 3166 3166 3165 3165 3164 3164 3163 3163 3162 3161 3161 3160 3159 3159 3159 3158 3158 3157 3156 3155 3154 3154 3153 3152 3151 3150 3149 3148 3148 3147
3157 3158 3159 3160 3161 3162 3163 3164 3164 3165 3166 3167 3168 3168 3169 3169 3170 3170 3170 3171 3171 3171 3172 3172 3172 3172 3173 3173 3173 3173 3174 3174 3174 3174 3174 3174 3174 3174 3174 3174 3174 3174 3174 3174 3174 3174 3174 3174 3174 3174 3173 3173 3172 3172 3171 3171 3170 3170 3170 3169 3169 3169 3168 3168 3168 3168 3168 3168 3167 3167 3166 3166 3165 3165 3165 3164 3164 3164 3163 3162 3162 3161 3160 3159 3159 3159 3158 3158 3157 3157 3156 3155 3154 3154 3153 3152 3151 3150 3149 3148 3147 3146 3146
3156 3157 3158 3159 3160 3161 3162 3163 3164 3164 3165 3166 3166 3167 3168 3168 3168 3169 3169 3169 3170 3170 3170 3171 3171 3171 3172 3172 3172 3172 3172 3173 3173 3173 3173 3173 3173 3173 3173 3173 3173 3173 3173 3173 3173 3173 3172 3172 3172 3172 3172 3171 3171 3170 3170 3169 3169 3169 3168 3168 3168 3167 3167 3167 3167 3167 3167 3166 3166 3166 3165 3165 3164 3164 3164 3163 3163 3163 3162 3161 3161 3160 3159 3159 3158 3157 3157 3157 3156 3155 3155 3154 3154 3153 3152 3151 3150 3149 3148 3147 3146 3145 3145
3155 3156 3158 3159 3159 3160 3161 3162 3162 3163 3164 3164 3165 3166 3166 3167 3167 3167 3168 3168 3169 3169 3169 3169 3170 3170 3170 3170 3170 3171 3171 3171 3171 3171 3171 3171 3172 3172 3171 3171 3171 3171 3171 3171 3170 3170 3170 3170 3170 3170 3170 3169 3169 3169 3169 3168 3168 3167 3167 3167 3166 3166 3166 3166 3166 3166 3166 3165 3165 3165 3164 3164 3164 3163 3163 3162 3162 3161 3161 3160 3159 3159 3158 3157 3157 3156 3156 3155 3155 3154 3154 3153 3152 3152 3151 3150 3149 3148 3147 3146 3145 3144 3144
3155 3156 3157 3158 3158 3159 3159 3160 3161 3162 3163 3164 3164 3164 3165 3165 3166 3166 3167 3167 3167 3168 3168 3168 3169 3169 3169 3169 3169 3169 3169 3169 3169 3170 3170 3170 3170 3170 3170 3170 3170 3170 3169 3169 3169 3168 3168 3168 3168 3168 3168 3168 3168 3168 3167 3167 3166 3166 3166 3165 3165 3165 3165 3165 3165 3165 3164 3164 3164 3164 3163 3163 3163 3162 3162 3161 3161 3160 3160 3159 3159 3158 3157 3156 3156 3155 3155 3154 3154 3153 3153 3152 3151 3150 3149 3149 3148 3147 3146 3145 3144 3144 3143
3154 3154 3155 3156 3157 3158 3158 3159 3160 3161 3161 3162 3163 3163 3164 3164 3164 3165 3165 3166 3166 3166 3167 3167 3167 3167 3167 3168 3168 3168 3168 3168 3168 3168 3168 3168 3168 3169 3169 3169 3168 3168 3168 3168 3167 3166 3165 3165 3165 3165 3166 3166 3166 3166 3166 3165 3165 3164 3164 3164 3164 3164 3164 3164 3164 3164 3163 3163 3163 3163 3162 3162 3161 3161 3160 3160 3159 3159 3159 3158 3157 3157 3156 3155 3155 3154 3154 3153 3153 3152 3151 3151 3150 3149 3148 3148 3147 3146 3145 3144 3144 3143 3142
3152 3153 3154 3155 3155 3156 3157 3158 3159 3159 3160 3161 3161 3162 3162 3163 3163 3164 3164 3164 3164 3165 3165 3166 3166 3166 3166 3166 3166 3166 3166 3166 3166 3166 3166 3166 3167 3167 3166 3166 3166 3166 3166 3166 3166 3165 3163 3162 3163 3164 3164 3164 3164 3164 3164 3164 3164 3163 3163 3163 3162 3162 3162 3162 3162 3162 3162 3162 3162 3161 3161 3161 3160 3160 3159 3159 3159 3158 3158 3157 3156 3156 3155 3154 3154 3153 3153 3152 3152 3151 3150 3149 3149 3148 3147 3146 3146 3145 3144 3143 3143 3142 3141
3151 3152 3152 3153 3154 3155 3156 3156 3157 3158 3158 3159 3159 3160 3161 3161 3161 3162 3163 3163 3163 3164 3164 3164 3164 3164 3164 3164 3164 3164 3164 3164 3164 3164 3164 3165 3165 3165 3165 3164 3164 3165 3164 3164 3164 3164 3162 3160 3160 3161 3161 3162 3162 3162 3162 3162 3162 3162 3161 3161 3161 3161 3161 3161 3161 3161 3161 3160 3160 3160 3160 3159 3159 3159 3158 3158 3158 3157 3157 3156 3155 3154 3154 3153 3153 3152 3152 3151 3150 3149 3149 3148 3147 3146 3146 3145 3144 3144 3143 3142 3141 3140 3139
3149 3150 3151 3152 3153 3153 3154 3155 3155 3156 3157 3157 3158 3159 3159 3159 3160 3160 3161 3161 3162 3162 3162 3162 3163 3163 3163 3163 3163 3162 3162 3162 3162 3163 3163 3163 3163 3163 3163 3163 3163 3163 3163 3163 3162 3162 3160 3159 3160 3160 3159 3159 3159 3159 3159 3160 3160 3160 3160 3160 3160 3160 3160 3160 3159 3159 3159 3159 3159 3159 3159 3158 3158 3158 3157 3157 3157 3156 3155 3155 3154 3153 3153 3152 3152 3151 3151 3150 3149 3148 3148 3147 3146 3145 3144 3144 3143 3143 3142 3141 3140 3139 3138
3148 3149 3149 3150 3151 3152 3152 3153 3154 3154 3155 3155 3156 3157 3157 3158 3158 3159 3159 3160 3160 3160 3161 3161 3161 3161 3161 3161 3161 3161 3161 3161 3161 3161 3161 3161 3161 3161 3161 3161 3161 3161 3161 3161 3160 3159 3158 3159 3159 3159 3156 3156 3157 3158 3158 3158 3159 3159 3159 3159 3159 3159 3159 3158 3158 3158 3158 3158 3158 3157 3157 3157 3157 3156 3156 3156 3155 3155 3154 3154 3153 3152 3151 3151 3150 3150 3149 3149 3148 3147 3146 3145 3144 3144 3143 3142 3142 3141 3140 3139 3139 3138 3137
3146 3147 3148 3148 3149 3149 3150 3151 3152 3152 3153 3154 3154 3155 3155 3156 3156 3157 3158 3158 3159 3159 3159 3159 3159 3159 3159 3159 3159 3159 3159 3159 3159 3159 3159 3159 3159 3159 3159 3159 3159 3159 3159 3159 3158 3157 3156 3157 3158 3157 3155 3154 3154 3155 3156 3156 3157 3157 3157 3157 3157 3157 3157 3157 3157 3157 3156 3156 3156 3156 3156 3155 3155 3155 3155 3155 3154 3154 3153 3152 3151 3151 3150 3149 3149 3149 3148 3147 3146 3145 3145 3144 3143 3142 3141 3141 3140 3139 3139 3138 3137 3137 3136
3144 3145 3146 3147 3147 3148 3148 3149 3150 3150 3151 3152 3152 3153 3154 3154 3155 3155 3156 3156 3157 3157 3157 3157 3158 3158 3158 3158 3158 3158 3158 3158 3157 3157 3157 3157 3157 3157 3157 3157 3157 3157 3157 3156 3156 3156 3155 3155 3155 3155 3154 3154 3153 3153 3154 3154 3154 3155 3155 3156 3156 3155 3155 3155 3155 3155 3155 3155 3155 3154 3154 3154 3154 3154 3154 3154 3153 3152 3152 3151 3150 3149 3149 3148 3148 3148 3147 3146 3145 3144 3143 3142 3141 3140 3140 3139 3138 3138 3137 3137 3136 3135 3134
3143 3144 3144 3144 3145 3146 3147 3147 3148 3148 3149 3149 3150 3151 3152 3153 3153 3154 3154 3154 3155 3155 3155 3156 3156 3156 3156 3156 3156 3156 3156 3156 3156 3155 3155 3155 3154 3154 3155 3155 3155 3155 3154 3154 3154 3154 3154 3153 3153 3153 3153 3152 3152 3152 3152 3152 3153 3153 3153 3154 3154 3154 3154 3154 3154 3154 3154 3154 3153 3153 3153 3153 3152 3152 3152 3152 3152 3151 3150 3149 3149 3148 3147 3147 3147 3146 3145 3144 3144 3143 3142 3141 3140 3139 3138 3137 3136 3136 3135 3135 3134 3134 3133
3141 3142 3142 3143 3143 3144 3144 3145 3145 3146 3147 3147 3148 3149 3150 3151 3151 3152 3152 3153 3153 3153 3154 3154 3154 3154 3154 3154 3154 3154 3154 3154 3154 3154 3153 3153 3153 3152 3152 3152 3152 3152 3153 3152 3152 3152 3151 3151 3151 3151 3151 3151 3151 3151 3151 3151 3151 3151 3152 3152 3152 3152 3152 3153 3153 3152 3152 3152 3152 3151 3151 3151 3151 3151 3151 3151 3150 3149 3149 3148 3147 3147 3146 3146 3145 3145 3144 3143 3142 3141 3140 3139 3138 3137 3136 3135 3134 3134 3133 3133 3132 3132 3131